Meteo Giornale » Osservazioni meteo Italia » Roma Fiumicino

ore: 14:50 - Osservazioni Meteo Roma Fiumicino
Lat. 41° 48' N Lon. 12° 14' E Alt. 2 metri s.l.m.

nuvoloso Europe/Rome

13 °C

Nuvoloso

Temp. 24 Ore

7 °C

13 °C

Nord

1.8 Km/h

Dew point 7 °C

Umidità 66 %

Visibilità  10 Km

Il sole sorge alle ore 07:19

Il sole tramonta alle ore 16:42

Data e Ora Cielo e Fenomeni T °C DP °C Um. % Pres. hPa Vis. km Vento km/h
Oggi h: 14:50 nuvoloso Nuvoloso 13 7 66 1005 10 N 1.8
Oggi h: 14:20 nuvoloso Nuvoloso 13 8 71 1004 10 N 5.5
Oggi h: 13:50 nuvoloso Nuvoloso 13 8 71 1005 10 SE 9.3
Oggi h: 13:20 nuvoloso Nuvoloso 13 8 71 1005 10 SE 13
Oggi h: 12:50 poco_nuvoloso Poco Nuvoloso 13 9 76 1005 10 SE 13
Oggi h: 12:20 poco_nuvoloso Poco Nuvoloso 13 9 76 1006 10 E/SE 13
Oggi h: 11:50 poco_nuvoloso Poco Nuvoloso 12 9 81 1006 10 E/SE 14.8
Oggi h: 11:20 poco_nuvoloso Poco Nuvoloso 12 9 81 1006 10 E/SE 14.8
Oggi h: 10:50 poco_nuvoloso Poco Nuvoloso 12 9 81 1006 10 E/SE 13
Oggi h: 10:20 nuvoloso Nuvoloso 11 9 87 1006 10 E 13
Oggi h: 09:50 nuvoloso_piovaschi Rovescio di Pioggia 10 8 87 1006 4 E/SE 7.4
Oggi h: 09:20 coperto_pioggia Pioggia Debole 9 8 93 1006 10 E/NE 11.1
Oggi h: 08:50 nuvoloso Nuvoloso 8 8 100 1006 10 E/NE 7.4
Oggi h: 08:20 nuvoloso Nuvoloso 8 7 93 1006 10 E 11.1
Oggi h: 07:50 nuvoloso_piovaschi Debole Rovescio di Pioggia 7 7 100 1006 10 E 11.1
Oggi h: 07:20 nuvoloso Nuvoloso 7 7 100 1006 10 E 9.3
Oggi h: 06:50 nuvoloso Nuvoloso 7 7 100 1006 10 E 11.1
Oggi h: 06:20 poco_nuvoloso Poco Nuvoloso 7 7 100 1005 10 E 14.8
Oggi h: 05:50 sereno Sereno 8 7 93 1005 10 E 13
Oggi h: 04:50 coperto_pioggia Pioggia Debole 9 7 87 1006 10 E 16.7
Oggi h: 04:20 nuvoloso_piovaschi Debole Rovescio di Pioggia 8 8 100 1006 7 NO 7.4
Oggi h: 03:50 nuvoloso_piovaschi Rovescio di Pioggia 8 7 93 1006 6 N/NO 11.1
Oggi h: 03:20 coperto_pioggia Pioggia Debole 8 7 93 1006 10 E 16.7
Oggi h: 02:50 nuvoloso Nuvoloso 8 7 93 1006 10 E 14.8
Oggi h: 02:20 molto_nuvoloso Molto Nuvoloso 7 7 100 1006 10 E 13
Oggi h: 01:50 molto_nuvoloso Molto Nuvoloso 7 7 100 1007 10 N 5.5
Oggi h: 01:20 nuvoloso Nuvoloso 7 6 93 1007 10 E 7.4
Oggi h: 00:50 sereno Sereno 7 6 93 1006 10 E 9.3
Oggi h: 00:20 sereno Sereno 7 6 93 1006 10 E 7.4
Ieri h: 23:50 sereno Sereno 7 6 93 1006 10 E 7.4
Ieri h: 23:20 sereno Sereno 7 6 93 1006 10 E 7.4
Ieri h: 22:50 sereno Sereno 7 6 93 1006 10 E/NE 9.3
Ieri h: 22:20 sereno Sereno 8 6 87 1006 10 E 7.4
Ieri h: 21:50 nuvoloso Nuvoloso 8 6 87 1006 10 E/NE 7.4
Ieri h: 21:20 molto_nuvoloso Molto Nuvoloso 8 6 87 1006 10 E/NE 9.3
Ieri h: 20:50 molto_nuvoloso Molto Nuvoloso 8 6 87 1006 10 NE 7.4
Ieri h: 20:20 molto_nuvoloso Molto Nuvoloso 8 6 87 1006 10 NE 7.4
Ieri h: 19:50 molto_nuvoloso Molto Nuvoloso 8 7 93 1006 10 NE 9.3
Ieri h: 19:20 molto_nuvoloso Molto Nuvoloso 8 7 93 1006 10 E/NE 9.3
Ieri h: 18:50 coperto_pioggia Pioggia Debole 8 7 93 1006 10 N 7.4
Ieri h: 18:20 coperto_pioggia Pioggia Debole 8 7 93 1006 10 NO 7.4
Ieri h: 17:50 coperto_pioggia Pioggia Debole 8 7 93 1005 10 N/NO 16.7
Ieri h: 17:20 coperto_pioggia Pioggia 8 7 93 1006 7 N/NO 11.1
Ieri h: 16:50 coperto_pioggia Pioggia 8 8 100 1006 7 N 9.3
Ieri h: 16:20 coperto_pioggia Pioggia 8 8 100 1006 6 N 13
Ieri h: 15:50 coperto_pioggia Pioggia 9 8 93 1006 6 N 14.8
Ieri h: 15:20 coperto_pioggia Pioggia 9 8 93 1006 6 N/NO 16.7
Ieri h: 14:50 coperto_pioggia Pioggia 9 9 100 1007 6 N/NO 9.3